FENGYUN 1C DEB

Satellite information

Favourite Embed

Satellite Type and Status

DEBRISIN ORBIT

Key statistics

Satellite FENGYUN 1C DEB at a glance.

Uptime

9609

Days in orbit

Revolutions

≈ 14.4

Per day

Orbit

SSO

Sun Synchronous Orbit

Inclination

98.9

Latest

Satellite identification and parameters

Extended collection of information and parameters for FENGYUN 1C DEB.

Object identification

Identified? True

Debris? True

Object name: FENGYUN 1C DEB

International designator: 1999-025ASR

Object number (NORAD): 30731

Object ID (CCSDS): 30731

Country: PEOPLES REPUBLIC OF CHINA (PRC)

Current information (Y/N): Y

RCS size: SMALL

Orbital parameters

Period: 100.014 minutes

Inclination: 98.8642 deg

SMA: 7137.322 km

Apoapsis: 770.446 km

Periapsis: 747.928 km

RAAN: 317.5937 deg

Eccentricy: 0.00157751

Argument of periapsis: 195.7585 deg

Mean anomaly: 219.5022 deg

Mean motion: 14.39792182 rev/day

Mean motion (dot): 0.00008689 rev/day2

B* drag term: 0.0027782655 1/REarth

Two-line elements (TLE)

Creation date: Aug. 30, 2025, 3:38 a.m.

Reference frame: TEME

Reference center: EARTH

Epoch: Aug. 29, 2025, 10:18 p.m. UTC

TLE line 0: 0 FENGYUN 1C DEB

TLE line 1: 1 30731U 99025ASR 25241.92933231 .00008689 00000-0 27783-2 0 9995

TLE line 2: 2 30731 98.8642 317.5937 0015775 195.7585 219.5022 14.39792182958473

Live tracking on map

Real-time ground track for satellite FENGYUN 1C DEB.

In-orbit conjunctions

A list of the most updated potential collisions computed for object FENGYUN 1C DEB.

Target Orbit TCA Probability of collision Miss distance Type
FENGYUN 1C DEB SSO 2025-07-19 21:45:04 0.0001149616 244.0 (m) DEBRIS
COSMOS 676 LEO 2025-04-22 11:18:18 0.000283135 491.0 (m) PAYLOAD
SL-8 R/B LEO 2025-02-22 23:22:33 0.0001275124 468.0 (m) ROCKET BODY
DELTA 1 DEB SSO 2024-12-16 11:45:38 0.0001801446 84.0 (m) DEBRIS
COSMOS 1275 DEB LEO 2024-11-16 00:39:06 0.0006751403 385.0 (m) DEBRIS

Associated space launch

Chinese polar orbiting meteorological satellite

FENGYUN 1C DEB was lifted into orbit during the mission ‘Long March 4B | Feng Yun 1C’, on board a Long March 4B space rocket.

The launch took place on May 10, 1999, 1:33 a.m. from Launch Complex 7.

For more information about the launch, click the button.

Launch to space Long March 4B | Feng Yun 1C
Long March 4B | Feng Yun 1C

Agency: N/A

Status: Launch Successful

Launch date: May 10, 1999, 1:33 a.m. UTC

Rocket: Long March 4B

Launch pad: Launch Complex 7

Location: Taiyuan Satellite Launch Center, People's Republic of China

...

Latest news about this satellite

There are no fresh news available about this satellite. Check back as we update our databases every day.


Newsletter sign-up

Weekly statistics, charts and insights to help you stay on top of the space industry.